Location: ??????
(55.8274°N, 37.9338°E)
Time: 08:55:35
(UTC+00:00)

NOSS 2-3 (D) - Visible Passes

Search period start: 24 July 2024 00:00
Search period end: 03 August 2024 00:00
Orbit: 497 x 1701 km, 63.3° (Epoch: 24 April)

Date Brightness Start Highest point End Pass type
(mag) Time Alt. Az. Time Alt. Az. Time Alt. Az.
24 Jul 4.9 18:50:11 10° W 18:53:57 44° NNW 18:58:35 10° NE visible
24 Jul 5.6 20:41:19 10° WNW 20:45:21 35° N 20:50:27 10° ENE visible
24 Jul 4.7 22:31:45 10° NW 22:36:33 62° NNE 22:43:02 10° ESE visible
25 Jul 4.7 00:21:59 10° WNW 00:27:07 47° SW 00:33:57 10° SSE visible
25 Jul 5.6 19:53:17 10° WNW 19:57:10 34° N 20:02:00 10° ENE visible
25 Jul 5.1 21:43:57 10° NW 21:48:32 49° NNE 21:54:34 10° E visible
25 Jul 4.3 23:34:08 10° NW 23:39:17 67° SW 23:46:17 10° SE visible
26 Jul 5.4 19:05:11 10° WNW 19:08:59 36° N 19:13:40 10° ENE visible
26 Jul 5.4 20:56:06 10° NW 21:00:25 40° NNE 21:06:01 10° E visible
26 Jul 4.3 22:46:20 10° NW 22:51:22 89° NNE 22:58:16 10° SE visible
27 Jul 5.5 20:08:10 10° WNW 20:12:15 35° N 20:17:26 10° ENE visible
27 Jul 4.5 21:58:32 10° NW 22:03:24 67° NNE 22:09:59 10° ESE visible
27 Jul 4.8 23:48:49 10° WNW 23:53:54 43° SW 00:00:38 10° SSE visible
28 Jul 5.5 19:20:08 10° WNW 19:24:02 34° N 19:28:55 10° ENE visible
28 Jul 4.9 21:10:43 10° NW 21:15:21 52° NNE 21:21:31 10° ESE visible
28 Jul 4.4 23:00:54 10° NW 23:06:03 61° SW 23:13:01 10° SSE visible
29 Jul 5.4 18:32:00 10° WNW 18:35:48 35° N 18:40:31 10° ENE visible
29 Jul 5.2 20:22:51 10° NW 20:27:13 42° NNE 20:32:56 10° E visible
29 Jul 4.2 22:13:03 10° NW 22:18:07 84° SW 22:25:04 10° SE visible
30 Jul 5.4 00:03:42 10° WNW 00:08:23 27° WSW 00:14:14 10° S visible
30 Jul 5.4 19:34:53 10° WNW 19:39:02 36° NNE 19:44:19 10° ENE visible
30 Jul 4.4 21:25:13 10° NW 21:30:08 73° NE 21:36:49 10° ESE visible
30 Jul 4.9 23:15:33 10° WNW 23:20:35 39° SW 23:27:11 10° SSE visible
31 Jul 5.4 18:46:51 10° WNW 18:50:47 34° N 18:55:45 10° ENE visible
31 Jul 4.8 20:37:22 10° NW 20:42:04 55° NNE 20:48:21 10° ESE visible
31 Jul 4.5 22:27:33 10° WNW 22:32:42 56° SW 22:39:39 10° SSE visible
01 Aug 6.0 00:19:10 10° W 00:22:40 16° WSW 00:26:41 10° SSW visible
01 Aug 5.1 19:49:28 10° NW 19:53:55 44° NNE 19:59:45 10° E visible
01 Aug 4.2 21:39:39 10° NW 21:44:45 78° SW 21:51:44 10° SE visible
01 Aug 5.6 23:30:27 10° WNW 23:34:58 24° WSW 23:39:11 14° SSW visible
02 Aug 5.3 19:01:31 10° NW 19:05:42 38° NNE 19:11:06 10° E visible
02 Aug 4.3 20:51:47 10° NW 20:56:44 78° NE 21:03:31 10° ESE visible
02 Aug 5.1 22:42:11 10° WNW 22:47:09 35° SW 22:51:11 19° S visible
